Wind_Speed
37 44 41 39 42 38 36 36 35 34 34 30 28 25 17 13 15 13 10 9 6 5 4 5 7 9 10 11 12 12 12 13 14 15 16 15 12 15 14 16 17 18 18
36 29 33 39 39 35 35 36 36 35 34 29 29 22 16 17 18 15 11 9 7 6 7 8 10 12 12 12 10 10 10 11 12 12 12 10 14 12 14 15 16 19 20
37 33 29 27 36 34 38 39 37 36 34 28 33 19 17 22 19 15 11 8 8 8 9 11 12 11 11 11 12 13 13 11 11 12 14 12 13 13 13 15 14 16 19
41 41 38 42 46 44 44 39 37 36 31 30 20 18 19 23 19 14 11 9 9 9 11 12 11 10 12 13 12 12 12 12 14 15 16 16 15 14 15 17 16 16 19
40 39 40 44 46 47 47 44 39 37 33 23 20 17 20 23 17 14 12 10 11 11 13 13 14 15 15 15 15 15 14 13 15 19 21 19 18 19 19 20 20 20 20
40 38 38 44 46 44 45 39 38 28 28 21 16 17 22 21 16 13 12 13 13 15 16 17 17 18 18 18 17 16 16 14 17 24 24 24 24 23 23 23 23 24 26
41 31 35 40 47 41 40 42 33 21 19 16 15 17 20 18 15 12 13 15 16 18 18 19 20 20 18 17 17 18 19 20 20 28 29 29 27 28 27 26 27 28 29
27 28 16 19 44 44 40 32 17 12 10 10 13 16 16 14 12 13 17 18 20 20 20 20 22 20 23 23 24 23 26 27 28 31 34 34 31 30 31 31 28 29 30
46 55 32 33 40 42 36 22 16 13 8 7 11 10 10 9 14 16 19 21 21 24 24 23 22 23 23 22 24 25 28 30 32 36 37 39 38 31 32 32 31 31 28
27 23 27 28 35 28 23 16 13 10 8 8 8 9 13 16 15 20 19 21 23 25 27 27 23 24 24 24 29 34 38 38 40 40 42 43 44 41 36 35 32 32 30
38 34 32 23 16 11 12 14 12 9 6 6 11 11 14 16 17 19 22 24 23 25 27 27 28 29 30 31 33 32 37 40 44 45 44 44 45 41 39 36 35 34 33
35 32 9 13 13 12 14 11 9 7 8 9 12 12 14 17 20 21 25 25 26 26 26 23 22 26 33 36 40 41 44 41 42 45 43 41 42 41 41 36 36 35 34
13 12 13 17 17 16 13 9 4 6 9 12 12 14 17 15 18 24 27 23 22 19 24 29 27 31 29 33 34 35 39 38 39 43 39 40 42 38 39 38 35 33 32
4 12 12 10 10 8 7 7 6 7 11 12 14 19 23 15 20 18 17 10 26 17 23 30 32 37 38 39 37 34 34 37 38 37 39 38 40 37 33 34 34 34 33
8 9 9 7 4 3 3 2 4 8 10 13 15 19 25 20 10 23 23 19 27 30 27 28 30 32 33 36 36 35 32 35 38 36 39 38 39 37 36 37 37 40 39
4 6 5 3 2 3 1 6 7 10 12 14 17 24 27 31 22 25 30 27 31 27 28 30 32 33 34 35 37 38 38 37 39 39 41 42 41 41 42 44 44 44 46
4 2 2 2 2 4 7 10 9 11 14 18 22 27 28 30 22 29 32 28 25 25 29 32 34 35 36 37 36 37 39 41 42 43 45 47 48 47 48 49 51 50 51
3 2 1 1 3 7 9 10 14 17 20 23 27 28 24 31 26 27 26 28 29 30 32 34 36 37 40 41 42 44 44 42 41 44 45 48 48 49 50 51 53 54 54
2 2 4 5 8 9 13 18 21 23 26 27 28 29 32 26 26 27 29 32 35 37 38 40 42 43 44 45 46 47 47 46 44 45 47 49 50 51 52 54 56 59 61
4 6 7 10 13 15 19 20 23 27 27 27 27 29 25 27 29 31 35 37 39 40 42 44 45 46 47 47 47 49 47 45 46 47 48 51 53 56 59 62 64 65 68
8 9 12 15 17 19 19 20 23 22 22 24 24 27 28 31 33 35 38 39 42 44 46 48 48 50 52 52 52 53 50 49 48 52 55 58 62 65 69 72 74 76 77
9 16 16 19 22 20 20 21 20 19 20 24 26 29 33 36 38 41 43 45 47 48 51 52 52 54 56 57 58 56 52 48 51 56 60 65 69 73 76 79 81 80 82
16 18 20 20 19 16 17 16 17 20 23 28 32 34 38 42 44 46 47 48 49 50 52 54 56 58 59 59 58 56 56 58 61 64 68 72 77 80 83 85 88 91 94
22 22 19 18 16 14 15 19 23 26 30 33 37 40 44 46 49 49 50 51 52 52 54 56 57 58 59 58 56 60 65 68 71 74 77 81 86 90 91 93 96 90 85
24 20 16 15 15 17 20 25 30 33 36 39 42 44 48 50 51 53 54 54 53 54 56 58 58 61 62 60 62 66 70 74 78 82 85 88 92 97 101 99 88 75 72
23 18 16 17 18 24 28 31 35 38 41 45 49 51 54 56 56 57 58 59 60 62 63 63 63 65 63 63 66 71 76 80 84 89 92 94 98 97 92 81 73 67 61
Wind_Direction
265 261 248 252 263 266 273 278 280 281 282 288 293 296 284 240 216 213 213 217 225 243 270 280 287 299 305 306 306 306 311 306 305 301 299 296 303 290 289 292 294 295 297
265 260 256 247 255 266 270 273 276 275 278 284 292 284 265 223 218 214 212 224 239 269 281 294 300 307 315 313 312 320 322 331 328 318 311 310 290 307 303 296 295 294 296
274 277 291 267 272 269 271 272 269 270 274 275 286 266 240 215 214 218 222 235 254 273 290 297 304 306 315 317 316 318 323 330 330 330 328 324 316 312 312 307 305 303 296
271 276 274 275 277 277 273 265 260 265 263 274 260 247 223 216 214 220 230 244 272 285 293 303 306 314 319 321 318 315 317 324 332 332 326 326 311 295 295 297 300 299 298
271 275 277 279 278 274 271 255 253 258 260 261 249 238 225 214 215 226 246 264 276 291 301 306 310 314 316 310 309 308 313 324 340 333 327 316 304 298 291 288 292 291 289
273 272 280 279 273 275 265 250 251 243 254 258 242 230 219 215 221 240 264 276 288 297 301 311 313 313 313 306 303 300 302 311 328 337 330 320 313 303 293 286 284 286 286
254 259 276 277 269 274 257 236 234 241 251 243 229 223 214 216 226 249 271 282 291 295 306 310 310 308 309 309 310 309 306 302 309 325 325 323 314 304 297 288 284 281 280
215 267 245 255 265 240 220 216 208 215 214 213 214 213 211 221 242 269 275 287 295 301 308 315 316 307 302 304 307 319 313 312 306 314 319 319 316 307 300 293 286 279 280
253 252 240 254 234 217 211 205 204 198 179 200 215 213 227 260 265 270 283 287 302 315 312 309 308 305 305 312 312 315 319 314 311 318 316 315 314 305 298 292 290 285 280
226 242 252 212 199 194 198 188 166 156 170 194 206 228 241 253 272 277 289 304 310 310 305 306 305 306 305 311 319 320 309 306 305 309 308 304 304 304 301 296 290 286 283
247 257 239 210 219 194 127 133 138 142 154 190 220 240 256 272 286 303 311 307 308 307 301 298 302 303 301 300 300 307 315 305 303 302 302 301 298 299 296 293 290 287 284
226 211 246 41 91 130 120 139 156 190 219 233 250 269 290 305 305 311 311 303 304 302 303 319 307 306 309 309 300 297 305 305 300 296 300 302 300 299 297 296 290 287 288
188 195 87 92 95 117 131 141 170 235 259 268 295 300 293 291 303 318 320 303 307 308 320 325 300 297 305 308 304 302 301 300 299 298 301 300 298 297 296 294 292 289 286
32 72 105 109 124 127 153 189 233 268 273 295 308 312 298 316 315 325 309 287 328 321 322 318 312 308 311 312 312 310 302 298 296 296 296 294 291 290 291 290 290 288 286
130 135 128 135 143 157 222 235 254 269 283 302 310 311 332 303 326 355 317 280 310 322 316 311 312 310 311 313 312 310 300 294 291 293 286 283 282 283 283 283 284 285 282
170 154 159 132 144 190 275 293 273 279 293 305 307 316 321 323 284 319 329 309 301 309 317 318 317 317 315 312 309 307 301 293 290 287 284 282 279 276 277 279 279 278 278
205 227 75 36 277 247 280 293 298 299 293 298 303 327 317 318 302 285 318 312 314 317 319 319 317 317 315 314 309 301 295 290 288 285 282 280 279 278 276 273 273 273 273
221 199 144 233 257 278 288 300 302 301 306 316 317 315 320 319 309 307 318 312 315 319 317 314 313 313 314 316 316 313 307 300 291 287 286 285 285 283 281 278 275 272 269
261 305 306 288 295 299 315 312 312 316 316 315 310 310 310 315 317 317 309 313 317 314 313 311 312 314 314 313 314 313 309 304 297 291 289 286 285 284 282 281 280 280 278
253 267 281 304 314 314 306 314 310 306 305 304 305 306 317 317 314 314 315 315 313 311 310 314 316 317 316 313 311 310 306 301 299 296 295 294 292 290 289 288 286 283 280
297 302 309 312 316 315 306 297 297 300 298 305 311 316 317 313 315 313 314 315 314 315 316 316 318 317 315 313 311 310 307 305 303 302 302 301 300 298 295 293 291 288 285
314 314 315 307 308 309 304 301 300 306 312 311 309 314 311 311 313 314 315 316 317 316 317 316 315 315 315 313 311 309 305 304 303 303 302 302 301 300 299 297 294 291 289
316 310 304 302 302 300 304 308 308 308 310 309 311 311 308 309 310 310 311 312 312 314 314 312 312 313 313 310 309 307 306 305 304 303 303 304 304 304 303 301 299 297 296
317 313 303 304 306 304 309 306 306 309 308 309 309 310 309 308 306 309 310 311 311 311 310 309 309 310 310 309 309 311 310 309 308 306 307 307 308 308 307 305 303 299 293
311 308 301 303 305 306 303 305 306 310 308 308 307 305 302 304 306 311 312 311 307 305 307 309 310 311 312 312 312 312 311 312 311 310 309 308 309 310 310 307 301 294 290
294 303 301 305 313 310 308 307 306 306 306 306 305 307 308 310 310 310 309 308 306 311 312 313 313 313 312 311 310 310 310 311 311 310 310 310 312 314 313 303 296 292 289
Height
5854 5854 5853 5855 5855 5855 5856 5856 5856 5856 5855 5855 5855 5855 5854 5853 5853 5852 5852 5852 5851 5851 5850 5849 5848 5848 5847 5846 5845 5844 5843 5842 5841 5840 5839 5838 5837 5834 5833 5833 5831 5829 5829
5849 5847 5847 5849 5851 5851 5851 5852 5852 5851 5851 5853 5853 5852 5851 5851 5851 5851 5850 5851 5851 5850 5850 5848 5848 5847 5845 5844 5843 5841 5841 5840 5840 5838 5837 5834 5830 5831 5830 5830 5828 5827 5825
5843 5843 5842 5844 5847 5846 5846 5847 5847 5847 5847 5849 5850 5848 5848 5847 5848 5850 5850 5850 5850 5849 5848 5847 5846 5845 5843 5842 5840 5839 5838 5841 5838 5835 5832 5829 5828 5826 5825 5825 5824 5823 5823
5837 5838 5838 5839 5838 5839 5840 5841 5841 5842 5843 5844 5844 5845 5844 5846 5847 5847 5848 5847 5848 5846 5845 5844 5843 5841 5841 5839 5838 5836 5836 5836 5834 5832 5829 5826 5825 5823 5822 5821 5819 5818 5818
5830 5831 5831 5831 5831 5830 5833 5833 5836 5837 5839 5839 5840 5841 5843 5844 5844 5845 5846 5845 5845 5844 5842 5841 5840 5838 5836 5836 5834 5834 5832 5831 5829 5827 5826 5824 5823 5820 5817 5816 5813 5812 5812
5824 5824 5824 5823 5823 5822 5825 5830 5831 5833 5832 5835 5836 5837 5839 5840 5841 5843 5844 5843 5842 5841 5839 5836 5835 5834 5833 5832 5831 5830 5827 5825 5824 5823 5820 5818 5815 5814 5812 5810 5809 5807 5807
5816 5817 5818 5817 5815 5817 5823 5824 5825 5828 5829 5831 5832 5835 5836 5837 5838 5839 5840 5839 5838 5837 5835 5834 5833 5831 5829 5828 5827 5825 5822 5820 5818 5819 5817 5814 5812 5810 5808 5805 5803 5802 5801
5801 5811 5813 5814 5811 5813 5815 5818 5821 5824 5826 5828 5830 5833 5833 5835 5836 5837 5837 5836 5835 5833 5831 5829 5827 5826 5826 5825 5823 5821 5817 5816 5814 5812 5810 5808 5805 5804 5802 5800 5798 5796 5794
5811 5806 5807 5808 5806 5805 5810 5814 5818 5820 5822 5826 5830 5831 5832 5833 5835 5834 5833 5833 5831 5829 5827 5825 5823 5823 5822 5820 5817 5816 5812 5809 5807 5805 5803 5800 5798 5796 5795 5793 5791 5790 5788
5805 5807 5810 5802 5800 5802 5806 5810 5815 5819 5822 5826 5828 5829 5830 5830 5831 5832 5829 5828 5825 5824 5824 5823 5822 5819 5817 5816 5814 5809 5806 5803 5802 5799 5796 5792 5790 5788 5787 5786 5784 5783 5781
5808 5808 5806 5803 5801 5804 5806 5810 5815 5818 5821 5824 5826 5827 5826 5827 5829 5827 5826 5824 5822 5821 5819 5818 5815 5814 5812 5810 5808 5805 5801 5797 5792 5789 5786 5784 5782 5779 5779 5778 5777 5776 5775
5804 5802 5798 5799 5802 5804 5809 5814 5816 5817 5820 5822 5824 5824 5825 5825 5825 5825 5823 5820 5818 5816 5814 5812 5811 5810 5807 5803 5801 5796 5792 5788 5785 5783 5778 5775 5773 5771 5769 5769 5769 5768 5767
5794 5796 5798 5801 5803 5807 5810 5813 5814 5817 5818 5822 5822 5823 5823 5822 5821 5820 5816 5816 5814 5812 5811 5809 5806 5803 5801 5797 5793 5789 5785 5779 5776 5774 5771 5769 5767 5765 5764 5762 5762 5761 5758
5790 5795 5800 5801 5803 5805 5810 5814 5815 5817 5820 5820 5821 5821 5818 5817 5817 5815 5812 5809 5810 5809 5805 5802 5798 5796 5792 5788 5784 5781 5778 5774 5769 5766 5765 5761 5760 5760 5758 5756 5755 5754 5753
5796 5798 5800 5802 5804 5807 5811 5813 5815 5815 5816 5815 5815 5816 5813 5812 5810 5808 5808 5806 5803 5801 5799 5796 5792 5788 5784 5779 5775 5773 5770 5767 5763 5758 5758 5755 5754 5752 5751 5749 5748 5746 5745
5796 5799 5800 5802 5806 5808 5811 5812 5813 5812 5812 5812 5811 5810 5807 5806 5803 5802 5801 5798 5795 5792 5789 5787 5783 5780 5776 5772 5767 5764 5762 5759 5755 5751 5749 5747 5746 5743 5742 5740 5739 5737 5734
5798 5800 5801 5802 5806 5808 5810 5810 5808 5809 5808 5807 5803 5801 5800 5799 5795 5794 5793 5793 5789 5786 5783 5779 5775 5772 5768 5764 5761 5757 5754 5750 5745 5743 5740 5737 5734 5733 5732 5730 5728 5726 5723
5801 5802 5801 5803 5804 5804 5804 5805 5805 5804 5802 5799 5796 5797 5795 5793 5791 5790 5786 5786 5783 5779 5774 5772 5768 5764 5759 5755 5751 5747 5743 5740 5735 5732 5729 5724 5722 5720 5717 5715 5714 5712 5711
5798 5799 5799 5799 5800 5799 5797 5797 5796 5795 5793 5793 5793 5790 5789 5787 5785 5782 5782 5778 5773 5770 5767 5764 5759 5754 5749 5745 5740 5735 5731 5727 5723 5719 5716 5712 5710 5707 5704 5701 5699 5696 5693
5796 5797 5797 5796 5796 5795 5795 5793 5792 5792 5791 5789 5787 5786 5783 5781 5781 5778 5772 5768 5765 5762 5758 5753 5748 5742 5737 5733 5729 5725 5721 5716 5711 5706 5704 5699 5695 5692 5688 5685 5682 5679 5675
5794 5794 5793 5792 5791 5792 5791 5791 5790 5788 5787 5785 5782 5779 5778 5776 5773 5769 5764 5760 5756 5752 5747 5741 5735 5731 5726 5721 5717 5713 5708 5703 5699 5694 5688 5683 5678 5673 5668 5664 5659 5656 5652
5792 5789 5790 5788 5788 5789 5787 5787 5785 5783 5781 5779 5776 5774 5771 5766 5763 5759 5755 5750 5745 5739 5734 5729 5724 5719 5713 5707 5702 5698 5696 5695 5688 5682 5675 5668 5661 5654 5647 5639 5633 5627 5623
5789 5788 5787 5786 5786 5786 5784 5781 5779 5779 5777 5773 5770 5768 5763 5759 5756 5752 5747 5741 5736 5730 5724 5719 5712 5706 5701 5695 5688 5683 5679 5676 5672 5666 5660 5651 5641 5633 5623 5613 5604 5598 5591
5785 5785 5784 5783 5782 5780 5778 5776 5775 5774 5771 5768 5764 5760 5756 5751 5747 5742 5737 5731 5725 5719 5713 5707 5701 5694 5688 5682 5675 5668 5661 5655 5649 5646 5638 5628 5618 5609 5597 5585 5571 5561 5549
5781 5781 5780 5779 5777 5774 5774 5772 5769 5767 5764 5761 5758 5754 5750 5744 5738 5732 5725 5719 5714 5709 5703 5695 5687 5679 5671 5664 5656 5650 5642 5634 5626 5619 5616 5605 5595 5580 5567 5551 5539 5530 5519
5777 5776 5775 5773 5772 5769 5768 5766 5763 5761 5757 5752 5747 5742 5735 5728 5723 5718 5713 5707 5699 5691 5684 5676 5668 5661 5654 5648 5640 5631 5622 5614 5605 5594 5587 5581 5572 5559 5541 5526 5513 5504 5498